Location: Alsip
(41.6689°N, 87.7387°W)
Time: 14:21:24
(UTC+00:00)

Cosmos 1869 - Pass Details

Date: 14 July 2020
Orbit: 520 x 563 km, 82.5° (Epoch: 05 August)

Event Time Altitude Azimuth Distance (km) Brightness Sun altitude
Rises 03:29:14 0° 344° (NNW) 2,729 8.2 -18.1°
Reaches altitude 10° 03:31:29 10° 337° (NNW) 1,837 7.2 -18.3°
Maximum altitude 03:35:16 40° 268° (W) 825 4.4 -18.7°
Enters shadow 03:37:28 22° 210° (SSW) 1,259 4.9 -19.0°
